Location: New York
(40.7140°N, 74.0060°W)
Time: 10:03:53
(UTC-04:00)

ISS - Visible Passes

Search period start: 28 March 2017 00:00
Search period end: 07 April 2017 00:00
Orbit: 399 x 409 km, 51.6° (Epoch: 28 March)

Date Brightness Start Highest point End Pass type
(mag) Time Alt. Az. Time Alt. Az. Time Alt. Az.
28 Mar -2.6 21:09:07 10° W 21:12:12 39° NNW 21:12:44 35° N visible
29 Mar -3.6 20:16:33 10° WSW 20:19:47 70° NW 20:23:03 10° NE visible
29 Mar -0.8 21:54:29 10° WNW 21:55:50 15° NW 21:55:50 15° NW visible
30 Mar -1.5 21:01:29 10° WNW 21:04:08 22° NNW 21:06:02 14° NNE visible
31 Mar -2.2 20:08:35 10° W 20:11:34 33° NNW 20:14:36 10° NE visible
31 Mar -0.8 21:47:07 10° NW 21:48:44 13° N 21:48:44 13° N visible
01 Apr -1.1 20:54:02 10° NW 20:56:07 16° NNW 20:58:13 10° NNE visible
02 Apr -1.4 20:00:56 10° WNW 20:03:27 20° NNW 20:05:59 10° NNE visible
02 Apr -0.9 21:39:27 10° NNW 21:40:53 12° N 21:41:03 12° N visible
03 Apr -1.0 20:46:32 10° NW 20:48:08 13° N 20:49:43 10° NNE visible
04 Apr -1.1 19:53:27 10° NW 19:55:23 15° NNW 19:57:20 10° NNE visible
04 Apr -1.1 21:31:12 10° NNW 21:32:54 13° N 21:33:03 13° NNE visible
05 Apr -1.1 20:38:41 10° NNW 20:40:08 12° N 20:41:35 10° NNE visible
05 Apr -0.5 22:14:50 10° NNW 22:15:19 13° NNW 22:15:19 13° NNW visible
06 Apr -1.5 21:22:34 10° NNW 21:24:49 17° NNE 21:24:54 17° NNE visible
